Lytton, British Columbia

2:45 AM PDT on July 21, 2017 (GMT -0700)
Lytton

Weather History for CWLY - January, 2014

Change the Weather History Date:

Saturday, January 18, 2014

  Actual Average Record
Temperature  
Mean Temperature 32 °F -  
Max Temperature 37 °F 38 °F 50 °F (2015)
Min Temperature 26 °F 26 °F -4 °F (2012)
Degree Days  
Heating Degree Days 34    
Moisture  
Dew Point 27 °F    
Average Humidity 85    
Maximum Humidity 100    
Minimum Humidity 70    
Precipitation  
Precipitation 0.00 in 0.07 in - ()
Sea Level Pressure  
Sea Level Pressure 30.27 in    
Wind  
Wind Speed 2 mph ()    
Max Wind Speed 5 mph    
Max Gust Speed -    
Visibility 9.0 miles    
Events      
Averages and records for this station are not official NWS values.
T = Trace of Precipitation, MM = Missing Value Source: Averaged Metar Reports

Daily Weather History Graph

Daily Weather History Graph

Search for Another Location

Airport or City:

Trip Planner

Search our weather history database for the weather conditions in past years. The results will help you decide how hot, cold, wet, or windy it might be!

Date:

Astronomy

Jan. 18, 2014 Rise Set
Actual Time 7:57 AM PST 4:36 PM PST
Civil Twilight 7:20 AM PST 5:13 PM PST
Nautical Twilight 6:40 AM PST 5:54 PM PST
Astronomical Twilight 6:01 AM PST 6:32 PM PST
Moon 7:45 PM PST (1/18) 8:40 AM PST (1/18)
Length of Visible Light 9h 53m
Length of Day
8h 39m
Waning Gibbous, 94% of the Moon is Illuminated
Jan 18
Waning Gibbous
Jan 23
Last Quarter
Jan 30
New
Feb 6
First Quarter
Feb 14
Full

Hourly Weather History & Observations

Time (PST) Temp. Windchill Dew Point Humidity Pressure Visibility Wind Dir Wind Speed Gust Speed Precip Events Conditions
12:00 AM 30.2 °F - 26.6 °F 86% 30.39 in 9.0 mi Variable 2.3 mph - N/A   Scattered Clouds
12:08 AM 30.2 °F - 26.6 °F 86% 30.39 in 9.0 mi Calm Calm - N/A   Mostly Cloudy
12:41 AM 30.2 °F - 26.6 °F 86% 30.38 in 9.0 mi Calm Calm - N/A   Mostly Cloudy
12:51 AM 30.2 °F 26.7 °F 26.6 °F 86% 30.37 in 9.0 mi SSW 3.5 mph - N/A   Mostly Cloudy
1:00 AM 30.2 °F - 26.6 °F 86% 30.36 in 9.0 mi Variable 2.3 mph - N/A   Mostly Cloudy
2:00 AM 30.2 °F - 26.6 °F 86% 30.36 in 9.0 mi Variable 2.3 mph - N/A   Overcast
3:00 AM 30.2 °F 26.7 °F 28.4 °F 93% 30.35 in 9.0 mi South 3.5 mph - N/A   Overcast
4:00 AM 32.0 °F - 28.4 °F 87% 30.33 in 9.0 mi Calm Calm - N/A   Overcast
5:00 AM 32.0 °F - 28.4 °F 87% 30.32 in 9.0 mi Variable 2.3 mph - N/A   Overcast
6:00 AM 32.0 °F - 28.4 °F 87% 30.31 in 9.0 mi Variable 2.3 mph - N/A   Overcast
7:00 AM 30.2 °F 26.7 °F 28.4 °F 93% 30.30 in 9.0 mi South 3.5 mph - N/A   Overcast
8:00 AM 30.2 °F 26.7 °F 28.4 °F 93% 30.28 in 9.0 mi South 3.5 mph - N/A   Overcast
9:00 AM 32.0 °F 28.7 °F 28.4 °F 87% 30.28 in 9.0 mi South 3.5 mph - N/A   Overcast
10:00 AM 32.0 °F 27.5 °F 28.4 °F 87% 30.28 in 9.0 mi South 4.6 mph - N/A   Overcast
11:00 AM 32.0 °F 28.7 °F 28.4 °F 87% 30.25 in 9.0 mi SSW 3.5 mph - N/A   Overcast
12:00 PM 33.8 °F - 28.4 °F 81% 30.23 in 9.0 mi Calm Calm - N/A   Overcast
1:00 PM 33.8 °F - 28.4 °F 81% 30.20 in 9.0 mi Calm Calm - N/A   Overcast
2:00 PM 37.4 °F - 28.4 °F 70% 30.19 in 9.0 mi Variable 2.3 mph - N/A   Mostly Cloudy
2:05 PM 37.4 °F - 28.4 °F 70% 30.19 in 9.0 mi Variable 2.3 mph - N/A   Scattered Clouds
2:12 PM 37.4 °F 34.9 °F 28.4 °F 70% 30.18 in 9.0 mi NNW 3.5 mph - N/A   Mostly Cloudy
2:39 PM 35.6 °F 32.8 °F 26.6 °F 70% 30.19 in 9.0 mi NNW 3.5 mph - N/A   Scattered Clouds
3:00 PM 35.6 °F - 26.6 °F 70% 30.19 in 9.0 mi Variable 2.3 mph - N/A   Partly Cloudy
4:00 PM 33.8 °F 30.8 °F 26.6 °F 75% 30.21 in 9.0 mi North 3.5 mph - N/A   Clear
5:00 PM 32.0 °F - 26.6 °F 80% 30.23 in 9.0 mi Calm Calm - N/A   Clear
6:00 PM 30.2 °F - 26.6 °F 86% 30.25 in 9.0 mi Calm Calm - N/A   Clear
7:00 PM 28.4 °F - 26.6 °F 93% 30.25 in 9.0 mi Calm Calm - N/A   Clear
8:00 PM 28.4 °F - 26.6 °F 93% 30.26 in 9.0 mi South 2.3 mph - N/A   Clear
9:00 PM 26.6 °F 22.6 °F 26.6 °F 100% 30.23 in 9.0 mi South 3.5 mph - N/A   Partly Cloudy
10:00 PM 26.6 °F - 26.6 °F 100% 30.23 in 9.0 mi Variable 2.3 mph - N/A   Mostly Cloudy
11:00 PM 28.4 °F 24.6 °F 26.6 °F 93% 30.24 in 9.0 mi SSE 3.5 mph - N/A   Overcast